TNCMTFFR

Guest
Details From TNCM - St Maarten - Princess Juliana Intl
To TFFR - Pointe a Pitre Le Raizet
Flight Number -
Tags generated
Created
Modified
Stats Distance 140 nm / 260 km
Max Altitude 7,000 ft / 2,134 m
Waypoints 4
Social Downloads 0
Likes 0
Share VATSIM

Download

Looking for another format? Having issues loading an existing format? Contact us
Advertisement - Login to hide

Notes

Basic altitude profile: - Ascent Rate: 2500ft/min - Ascent Speed: 250kts - Cruise Altitude: 15000ft - Cruise Speed: 420kts - Descent Rate: 1500ft/min - Descent Speed: 250kts Options: - Use NATs: yes - Use PACOTS: yes - Use low airways: yes - Use high airways: no

Route

TNCM BIMBO A517 PPR TFFR

ID Type Via Altitude Latitude Longitude Leg Dist Tot Dist Heading (true) Name
O TNCM APT - 0 ft / 0 m 18.04089˚ -63.10897˚ - 0 nm - St Maarten - Princess Juliana Intl
BIMBO FIX - 7,000 ft / 2,134 m 16.62667˚ -61.96028˚ 107 nm 107 nm 142° / 142° -
PPR DME A517 (AWY-LO) 7,000 ft / 2,134 m 16.26519˚ -61.54014˚ 32 nm 139 nm 132° / 132° POINTE A PITRE VOR-DME
O TFFR APT - 0 ft / 0 m 16.26531˚ -61.53181˚ 0 nm 140 nm 89° / 89° Pointe a Pitre Le Raizet

Altitude Profile

Advertisement - Login to hide

TNCM

Details ICAO TNCM (SXM)
Name St Maarten - Princess Juliana Intl
Region Caribbean Netherlands, Aruba, Curaçao, Sint Maarten
Timezone Unknown (UTC+0.0)
Stats Elevation 12 ft / 4 m (AMSL)
Location 18.040889° -63.108974°
Runways 1
Magnetic Variation 14.321° W

METAR

TNCM 171500Z 16007KT 9999 FEW020 31/25 Q1017 A3004 NOSIG

Decode

TAF

TAF TNCM 171138Z 1712/1812 14008KT P6SM VCSH SCT018 TEMPO 1712/1716 3SM SHRA BKN010 FM171600 12012KT P6SM VCSH SCT020 BKN040 FM180000 11008KT P6SM SCT025

Decode

Departure Runways

ID Width Length Bearing (true) Bearing (mag) Surface Threshold Offset Overrun Length
10 148 ft / 45 m 7,464 ft / 2,275 m 81.43° 95.75° Asphalt 0 ft / 0 m 151 ft / 46 m
28 148 ft / 45 m 7,464 ft / 2,275 m 261.44° 275.76° Asphalt 397 ft / 121 m 0 ft / 0 m

TFFR

Details ICAO TFFR (PTP)
Name Pointe a Pitre Le Raizet
Region France (Guadeloupe, Martinique, Saint Barthélemy, Saint Martin)
Timezone America/Guadeloupe (UTC-4.0)
Stats Elevation 35 ft / 11 m (AMSL)
Location 16.265306° -61.531808°
Runways 1
Magnetic Variation 14.853° W

METAR

TFFR 171500Z AUTO 14007KT 9999 BKN021/// OVC027/// ///CB 28/24 Q1016 TEMPO 3000 SHRA

Decode

TAF

Not found

Destination Runways

ID Width Length Bearing (true) Bearing (mag) Surface Threshold Offset Overrun Length
11 148 ft / 45 m 11,513 ft / 3,509 m 100.94° 115.79° Asphalt 0 ft / 0 m 0 ft / 0 m
29 148 ft / 45 m 11,513 ft / 3,509 m 280.95° 295.80° Asphalt 0 ft / 0 m 0 ft / 0 m

Approach Navaids

Runway Type Ident Frequency Range Bearing (true) Bearing (mag) Slope Elevation
11 Localiser PP 110.30 MHz 18 nm / 33 km 100.95° 115.81° - 36 ft / 11 m (AMSL)
11 Glidescope PP 110.30 MHz 10 nm / 19 km 100.94° 115.80° 3.20° 36 ft / 11 m (AMSL)

Popular Alternatives